AirNav   ProFlight Series 2 Aviation Headset
 
 1333 users online  

60F Seymour Municipal Airport
Seymour, Texas, USA

GOING TO SEYMOUR?


FAA INFORMATION EFFECTIVE 18 JUNE 2020

Location

FAA Identifier: 60F
Lat/Long: 33-38-54.6600N 099-15-40.7000W
33-38.911000N 099-15.678333W
33.6485167,-99.2613056
(estimated)
Elevation: 1344 ft. / 409.7 m (surveyed)
Variation: 07E (1995)
From city: 3 miles N of SEYMOUR, TX
Time zone: UTC -5 (UTC -6 during Standard Time)
Zip code: 76380

Airport Operations

Airport use: Open to the public
Activation date: 10/1965
Control tower: no
ARTCC: FORT WORTH CENTER
FSS: FORT WORTH FLIGHT SERVICE STATION
NOTAMs facility: FTW (NOTAM-D service available)
Attendance: UNATNDD
Wind indicator: lighted
Segmented circle: yes
Lights: SS-SR
Beacon: white-green (lighted land airport)
Operates sunset to sunrise.

Airport Communications

CTAF: 122.9
  • APCH/DEP SVC PRVDD BY FORT WORTH ARTCC ON FREQS 133.5/350.35 (WICHITA FALLS NR 2 RCAG).

Nearby radio navigation aids

VOR radial/distance  VOR name  Freq  Var
SPSr229/39.0WICHITA FALLS VORTAC112.7010E

 
NDB name  Hdg/Dist  Freq  Var  ID
SCOTLAND253/39.434405ESKB ... -.- -...

Airport Services

Parking: tiedowns
Airframe service: NONE
Powerplant service: NONE
Bottled oxygen: NONE
Bulk oxygen: NONE

Runway Information

Runway 17/35

Dimensions: 4300 x 50 ft. / 1311 x 15 m
Surface: asphalt, in poor condition
HVY VEGETATION AND CRACKING.
Weight bearing capacity: 
Single wheel: 4.0
Runway edge lights: medium intensity
Runway edge markings: 17/35 NSTD NPI MARKINGS. NRS 50 FT TALL; MARKINGS FADED.
RUNWAY 17  RUNWAY 35
Latitude: 33-39.265333N33-38.556667N
Longitude: 099-15.678333W099-15.678333W
Elevation: 1344.0 ft.1337.9 ft.
Traffic pattern: leftleft
Runway heading: 173 magnetic, 180 true353 magnetic, 000 true
Markings: NSTD, in poor conditionNSTD, in poor condition
Touchdown point: yes, no lightsyes, no lights
Obstructions: 4 ft. fence, lighted, 200 ft. from runway, 202 ft. right of centerline
+4 FT FENCE 180 FT L & 203 FT R AT RY THLD.
4 ft. fence, lighted, 200 ft. from runway, 199 ft. left of centerline
+4 FT FENCE 203 FT L AT RY THLD; 20 FT HANGER 87 FT FM THLD TO 172 FT FM THLD, 246 FT R.

Airport Ownership and Management from official FAA records

Ownership: Publicly-owned
Owner: CITY OF SEYMOUR
PO BOX 31
SEYMOUR, TX 76380
Phone 940-889-3148
Manager: STEVE BIEDEREMANN
PO BOX 31
SEYMOUR, TX 76380
Phone 940-889-3148
CITY MANAGER

Airport Operational Statistics

Aircraft based on the field: 10
Single engine airplanes: 9
Multi engine airplanes: 1
    
Aircraft operations: avg 63/week *
67% local general aviation
33% transient general aviation
* for 12-month period ending 28 February 2018

Additional Remarks

FOR CD CTC FORT WORTH ARTCC AT 817-858-7584.

Instrument Procedures

NOTE: All procedures below are presented as PDF files. If you need a reader for these files, you should download the free Adobe Reader.

NOT FOR NAVIGATION. Please procure official charts for flight.
FAA instrument procedures published for use from 18 June 2020 at 0901Z to 16 July 2020 at 0900Z.

 
IAPs - Instrument Approach Procedures
RNAV (GPS) RWY 17   download (177KB)
NOTE: Special Take-Off Minimums/Departure Procedures apply   download (113KB)

Other nearby airports with instrument procedures:

KONY - Olney Municipal Airport (28 nm SE)
F05 - Wilbarger County Airport (35 nm N)
15F - Haskell Municipal Airport (36 nm SW)
F14 - Wichita Valley Airport (37 nm NE)
KCWC - Kickapoo Downtown Airport (41 nm E)
 
Loc | Ops | Rwys | IFR | FBO | Links
Com | Nav | Svcs | Stats | Notes
Area around 60F (Seymour Municipal Airport)
 
Road maps at: MapQuest Bing Google
 
Aerial photo
WARNING: Photo may not be current or correct
Aerial photo of 60F (Seymour Municipal Airport)
Photo by Victor Estrada
Taken in October 2007

Do you have a better or more recent aerial photo of Seymour Municipal Airport that you would like to share? If so, please send us your photo.

 
Sectional chart

 
Airport distance calculator
Flying to Seymour Municipal Airport? Find the distance to fly.

From to 60F

Sunrise and sunset
Times for 10-Jul-2020
 Local
(UTC-5)
 Zulu
(UTC)
Morning civil twilight06:0811:08
Sunrise06:3611:36
Sunset20:4901:49
Evening civil twilight21:1702:17

Current date and time
Zulu (UTC)  10-Jul-2020 17:31:34
Local (UTC-5)  10-Jul-2020 12:31:34
 
METAR
KF05 
35nm N 
101715Z AUTO 17011KT 5SM CLR 35/22 A3001 RMK AO1 T03450219
KCWC 
40nm E 
101715Z AUTO 14010G17KT 7SM CLR 34/24 A3005 RMK AO2 T03360236
KSPS 
43nm NE 
101652Z 20012KT 10SM SCT180 BKN300 33/24 A3001 RMK AO2 SLP146 T03330244
KFDR 
44nm N 
101653Z AUTO 16012KT 10SM CLR 34/23 A2998 RMK AO2 SLP128 T03440228
KRPH 
48nm SE 
101710Z AUTO 00000KT 10SM CLR 33/23 A3002 RMK AO2 T03330232
TAF
KSPS 
43nm NE 
101120Z 1012/1112 14011KT P6SM OVC250 FM101500 17012G17KT P6SM SCT180
NOTAMs
Click for the latest NOTAMs
NOTAMs are issued by the DoD/FAA and will open in a separate window not controlled by AirNav.

 

 
 

Would you like to see your business listed on this page?

 If your business provides an interesting product or service to pilots, flight crews, aircraft, or users of the Seymour Municipal Airport, you should consider listing it here.  To start the listing process, click on the button below
 
Add a business
 

Other Pages about Seymour Municipal Airport

Update a link
 
Copyright © AirNav, LLC. All rights reserved. Privacy Policy  Contact